OBJECT F

Satellite information

Favourite Embed

Satellite Type and Status

UNKNOWNIN ORBIT

Key statistics

Satellite OBJECT F at a glance.

Uptime

1284

Days in orbit

Revolutions

≈ 15.2

Per day

Orbit

LEO

Low Earth Orbit

Inclination

63.5

Latest

Satellite identification and parameters

Extended collection of information and parameters for OBJECT F.

Object identification

Identified? True

Debris? False

Object name: OBJECT F

International designator: 2022-023F

Object number (NORAD): 51951

Object ID (CCSDS): 51951

Country: PEOPLES REPUBLIC OF CHINA (PRC)

Current information (Y/N): Y

RCS size: LARGE

Orbital parameters

Period: 94.819 minutes

Inclination: 63.48 deg

SMA: 6887.973 km

Apoapsis: 582.975 km

Periapsis: 436.702 km

RAAN: 150.4522 deg

Eccentricy: 0.01061799

Argument of periapsis: 336.5371 deg

Mean anomaly: 23.0915 deg

Mean motion: 15.18677605 rev/day

Mean motion (dot): 0.00025012 rev/day2

B* drag term: 0.0010398816 1/REarth

Two-line elements (TLE)

Creation date: Sept. 8, 2025, 6:18 p.m.

Reference frame: TEME

Reference center: EARTH

Epoch: Sept. 8, 2025, 2:59 p.m. UTC

TLE line 0: 0 OBJECT F

TLE line 1: 1 51951U 22023F 25251.62486696 .00025012 00000-0 10399-2 0 9996

TLE line 2: 2 51951 63.4800 150.4522 0106180 336.5371 23.0915 15.18677605194962

Live tracking on map

Real-time ground track for satellite OBJECT F.

In-orbit conjunctions

There are no conjunctions computed for OBJECT F, at the moment. Check back to stay up to date, as we update our databases every day.

Go to all conjunctions

Associated space launch

The first flight dedicated to the launch of the Internet constellation of GalaxySpace, a private company, planning the total deployment of more than 1000 satellites in earth orbit. The satellites broadcast in 5G, with a capacity of 10 Gb.

OBJECT F was lifted into orbit during the mission ‘Long March 2C | Yinhe-1 (x6)’, on board a Long March 2 space rocket.

The launch took place on March 5, 2022, 6:01 a.m. from Launch Complex 3 (LC-3/LA-1).

For more information about the launch, click the button.

Launch to space Long March 2C | Yinhe-1 (x6)
Long March 2C | Yinhe-1 (x6)

Agency: N/A

Status: Launch Successful

Launch date: March 5, 2022, 6:01 a.m. UTC

Rocket: Long March 2

Launch pad: Launch Complex 3 (LC-3/LA-1)

Location: Xichang Satellite Launch Center, People's Republic of China

...

Latest news about this satellite

News about space launch
Long March rocket deploys six Chinese internet satellites

Six demonstration satellites for a future Chinese broadband internet mega-constellation launched March 5 on a Long March 2C rocket.

News about space launch
China launches test satellites for broadband constellation

China  launched a set of commercial satellites Saturday for testing broadband services, on-orbit networking and integrating communications and remote sensing technologies.


Newsletter sign-up

Weekly statistics, charts and insights to help you stay on top of the space industry.